Location: Go�ngahuizen
(53.0821°N, 5.8849°E)
Time: 00:47:35
(UTC+00:00)

CZ-2C R/B - Pass Details

Date: 09 April 2020
Orbit: 785 x 870 km, 98.3° (Epoch: 30 May)

Event Time Altitude Azimuth Distance (km) Brightness Sun altitude
Rises 20:55:33 0° 11° (N) 3,293 6.3 -19.9°
Reaches altitude 10° 20:57:57 10° 5° (N) 2,358 5.6 -20.2°
Maximum altitude 21:02:51 45° 295° (WNW) 1,076 3.7 -20.7°
Drops below altitude 10° 21:07:46 10° 224° (SW) 2,358 5.0 -21.1°
Sets 21:10:10 0° 218° (SW) 3,292 5.7 -21.4°
